TimeCDT,TemperatureF,Dew PointF,Humidity,Sea Level PressureIn,VisibilityMPH,Wind Direction,Wind SpeedMPH,Gust SpeedMPH,PrecipitationIn,Events,Conditions,WindDirDegrees,DateUTC
12:15 AM,68.0,61.2,79,29.86,10.0,South,12.7,-,N/A,,Clear,180,2012-10-25 05:15:00
12:35 AM,67.3,61.2,81,29.86,10.0,South,12.7,-,N/A,,Clear,180,2012-10-25 05:35:00
12:55 AM,67.1,61.2,81,29.86,10.0,South,11.5,-,N/A,,Clear,180,2012-10-25 05:55:00
1:15 AM,66.4,61.0,83,29.85,10.0,South,11.5,-,N/A,,Clear,180,2012-10-25 06:15:00
1:35 AM,66.2,61.0,83,29.85,10.0,South,10.4,-,N/A,,Clear,180,2012-10-25 06:35:00
1:55 AM,66.0,60.8,83,29.85,10.0,South,11.5,-,N/A,,Clear,180,2012-10-25 06:55:00
2:15 AM,66.2,60.8,83,29.84,10.0,South,11.5,-,N/A,,Clear,180,2012-10-25 07:15:00
2:35 AM,66.4,60.8,82,29.84,10.0,South,12.7,-,N/A,,Clear,180,2012-10-25 07:35:00
2:55 AM,66.7,60.8,81,29.84,10.0,South,12.7,-,N/A,,Clear,180,2012-10-25 07:55:00
3:15 AM,66.2,60.8,83,29.84,10.0,South,10.4,-,N/A,,Clear,180,2012-10-25 08:15:00
3:35 AM,65.8,60.6,83,29.84,10.0,South,11.5,-,N/A,,Clear,170,2012-10-25 08:35:00
3:55 AM,65.8,60.8,84,29.83,10.0,South,11.5,-,N/A,,Clear,180,2012-10-25 08:55:00
4:15 AM,65.8,60.8,84,29.83,10.0,South,12.7,18.4,N/A,,Clear,180,2012-10-25 09:15:00
4:35 AM,65.3,60.4,84,29.83,10.0,South,9.2,-,N/A,,Clear,170,2012-10-25 09:35:00
4:55 AM,65.1,60.3,84,29.84,10.0,South,11.5,-,N/A,,Clear,180,2012-10-25 09:55:00
5:15 AM,64.6,60.1,85,29.84,10.0,South,11.5,-,N/A,,Clear,180,2012-10-25 10:15:00
5:35 AM,64.6,60.1,85,29.84,10.0,South,13.8,-,N/A,,Clear,180,2012-10-25 10:35:00
5:55 AM,64.8,59.9,84,29.84,10.0,South,13.8,-,N/A,,Clear,180,2012-10-25 10:55:00
6:15 AM,64.9,59.9,84,29.84,10.0,South,15.0,-,N/A,,Clear,180,2012-10-25 11:15:00
6:35 AM,64.4,59.0,83,29.84,10.0,South,17.3,20.7,N/A,,Clear,180,2012-10-25 11:35:00
6:55 AM,64.8,59.5,83,29.84,10.0,South,15.0,-,N/A,,Clear,180,2012-10-25 11:55:00
7:15 AM,64.4,59.4,84,29.84,10.0,South,13.8,19.6,N/A,,Clear,180,2012-10-25 12:15:00
7:35 AM,64.4,59.2,83,29.83,10.0,South,15.0,-,N/A,,Clear,180,2012-10-25 12:35:00
7:55 AM,64.8,59.4,83,29.83,10.0,South,15.0,-,N/A,,Clear,180,2012-10-25 12:55:00
8:15 AM,66.2,59.0,78,29.83,10.0,South,16.1,-,N/A,,Clear,180,2012-10-25 13:15:00
8:35 AM,65.8,59.5,80,29.83,10.0,South,18.4,24.2,N/A,,Clear,180,2012-10-25 13:35:00
8:55 AM,67.1,59.9,78,29.83,10.0,South,17.3,23.0,N/A,,Clear,180,2012-10-25 13:55:00
9:15 AM,68.4,60.1,75,29.82,10.0,South,18.4,27.6,N/A,,Clear,180,2012-10-25 14:15:00
9:35 AM,69.8,60.3,72,29.81,10.0,South,17.3,27.6,N/A,,Clear,190,2012-10-25 14:35:00
9:55 AM,71.2,60.3,68,29.81,10.0,South,17.3,28.8,N/A,,Clear,190,2012-10-25 14:55:00
10:15 AM,72.5,60.8,67,29.81,10.0,South,19.6,26.5,N/A,,Clear,190,2012-10-25 15:15:00
10:35 AM,73.4,60.8,65,29.80,10.0,South,19.6,28.8,N/A,,Scattered Clouds,190,2012-10-25 15:35:00
10:55 AM,74.5,61.0,63,29.80,10.0,SSW,13.8,26.5,N/A,,Scattered Clouds,200,2012-10-25 15:55:00
11:15 AM,75.9,61.7,61,29.79,10.0,SSW,15.0,24.2,N/A,,Scattered Clouds,200,2012-10-25 16:15:00
11:35 AM,76.5,61.2,59,29.78,10.0,SSW,17.3,29.9,N/A,,Clear,200,2012-10-25 16:35:00
11:55 AM,77.0,60.8,57,29.78,10.0,South,16.1,26.5,N/A,,Clear,190,2012-10-25 16:55:00
12:15 PM,77.4,61.3,58,29.77,10.0,South,13.8,27.6,N/A,,Mostly Cloudy,190,2012-10-25 17:15:00
12:35 PM,76.5,61.5,60,29.77,10.0,SSW,13.8,28.8,N/A,,Overcast,200,2012-10-25 17:35:00
12:55 PM,76.5,61.7,60,29.76,10.0,SSW,11.5,28.8,N/A,,Overcast,200,2012-10-25 17:55:00
1:15 PM,77.0,61.7,59,29.75,10.0,SSW,11.5,24.2,N/A,,Overcast,200,2012-10-25 18:15:00
1:35 PM,77.0,62.6,61,29.75,10.0,SSW,13.8,21.9,N/A,,Overcast,200,2012-10-25 18:35:00
1:55 PM,77.5,62.1,59,29.74,10.0,South,24.2,29.9,N/A,,Overcast,180,2012-10-25 18:55:00
2:15 PM,79.2,62.6,57,29.74,10.0,SSW,15.0,29.9,N/A,,Mostly Cloudy,200,2012-10-25 19:15:00
2:35 PM,77.5,62.6,60,29.74,10.0,SSW,11.5,25.3,N/A,,Mostly Cloudy,200,2012-10-25 19:35:00
2:55 PM,77.0,62.6,61,29.74,10.0,South,12.7,18.4,N/A,,Overcast,190,2012-10-25 19:55:00
3:15 PM,77.2,62.6,61,29.74,10.0,South,13.8,17.3,N/A,,Overcast,190,2012-10-25 20:15:00
3:35 PM,79.2,62.8,57,29.73,10.0,South,17.3,24.2,N/A,,Mostly Cloudy,190,2012-10-25 20:35:00
3:55 PM,78.6,62.8,58,29.73,10.0,SSW,10.4,23.0,N/A,,Mostly Cloudy,200,2012-10-25 20:55:00
4:15 PM,76.3,63.9,65,29.74,10.0,SSW,10.4,21.9,N/A,Rain,Light Rain,210,2012-10-25 21:15:00
4:35 PM,60.6,53.2,77,29.80,10.0,West,13.8,27.6,N/A,,Overcast,280,2012-10-25 21:35:00
4:55 PM,57.4,51.8,82,29.84,10.0,WNW,11.5,26.5,N/A,Rain,Light Rain,290,2012-10-25 21:55:00
5:15 PM,54.0,49.8,86,29.85,7.0,WNW,13.8,23.0,N/A,Rain,Rain,300,2012-10-25 22:15:00
5:35 PM,52.7,47.8,84,29.87,10.0,WNW,15.0,29.9,N/A,Rain,Light Rain,290,2012-10-25 22:35:00
5:55 PM,51.8,46.6,82,29.90,10.0,WNW,10.4,18.4,N/A,Rain,Light Rain,300,2012-10-25 22:55:00
6:15 PM,51.1,46.8,85,29.91,10.0,WNW,9.2,24.2,N/A,,Overcast,290,2012-10-25 23:15:00
6:35 PM,49.8,45.3,84,29.93,10.0,WNW,16.1,24.2,N/A,Rain,Light Rain,300,2012-10-25 23:35:00
6:55 PM,48.2,42.8,82,29.96,10.0,NW,13.8,20.7,N/A,,Overcast,310,2012-10-25 23:55:00
7:15 PM,48.2,43.0,82,29.96,10.0,WNW,10.4,23.0,N/A,,Overcast,300,2012-10-26 00:15:00
7:35 PM,45.7,43.2,91,29.98,3.0,NW,11.5,18.4,N/A,Rain,Heavy Rain,310,2012-10-26 00:35:00
7:55 PM,45.5,43.5,93,30.00,10.0,WNW,5.8,21.9,N/A,Rain,Light Rain,300,2012-10-26 00:55:00
8:15 PM,45.5,43.3,92,30.00,4.0,WNW,10.4,19.6,N/A,Rain,Rain,300,2012-10-26 01:15:00
8:35 PM,45.0,43.0,93,30.02,5.0,WNW,8.1,17.3,N/A,Rain,Rain,300,2012-10-26 01:35:00
8:55 PM,45.1,43.2,93,30.02,10.0,WNW,6.9,-,N/A,Rain,Rain,300,2012-10-26 01:55:00
9:15 PM,45.5,43.2,92,30.05,10.0,WNW,9.2,17.3,N/A,Rain,Light Rain,300,2012-10-26 02:15:00
9:35 PM,45.9,42.6,88,30.05,10.0,NW,11.5,18.4,N/A,,Overcast,320,2012-10-26 02:35:00
9:55 PM,46.0,41.7,85,30.06,10.0,NW,10.4,17.3,N/A,,Overcast,320,2012-10-26 02:55:00
10:15 PM,46.2,41.4,83,30.07,10.0,NW,10.4,-,N/A,,Overcast,320,2012-10-26 03:15:00
10:35 PM,46.4,41.4,83,30.08,10.0,NW,10.4,-,N/A,,Overcast,320,2012-10-26 03:35:00
10:55 PM,46.4,40.5,80,30.10,10.0,NW,10.4,18.4,N/A,,Overcast,310,2012-10-26 03:55:00
11:15 PM,46.4,39.4,77,30.11,10.0,NW,11.5,21.9,N/A,,Overcast,320,2012-10-26 04:15:00
11:35 PM,45.5,37.9,75,30.13,10.0,NW,9.2,20.7,N/A,,Overcast,310,2012-10-26 04:35:00
11:55 PM,44.6,37.4,76,30.14,10.0,NW,10.4,19.6,N/A,,Overcast,310,2012-10-26 04:55:00